STARLINK-1058 (44763 NORAD) Tracking and Keplerian Element Data

This shows tracking and keplerian element data for the satellite.

Feedback or suggestion? Click here.




ElementValue
Catalog44763
NameSTARLINK-1058
Epoch Orbit2090
Epoch Day87.91667824
Epoch Year2020
RAAN260.519
Inclination53.0121
Eccentricity0.0001597
Argument of Perigee82.5292
Mean Anonmoly125.5149
Mean Motion15.05540986
Decay Rate0.00045175
L11 44763U 19074BC 20087.91667824 .00045175 00000-0 31031-2 0 9997
L22 44763 53.0121 260.5190 0001597 82.5292 125.5149 15.05540986 20902

Live tracking and technical data element details for STARLINK-1058 (NORAD 44763). STARLINK-1058 can be tracked NOW for your location showing map with azimuth and elevation plus other details from your city location.

Track the satellite on the map from your city or location and see movement details for azimuth, elevation, latitude, longitude, range, height, and movement on the map or in text.







IsCatalogInMostPopularTable: catalog: 44763, numindb: 49
Update: records affected: 1



GetName: 44763 STARLINK-1058

Hit Count: updated at: Sat, 28 Mar 2020 21:10:20 GMT